TimeCST,TemperatureF,Dew PointF,Humidity,Sea Level PressureIn,VisibilityMPH,Wind Direction,Wind SpeedMPH,Gust SpeedMPH,PrecipitationIn,Events,Conditions,WindDirDegrees,DateUTC
12:53 AM,17.1,10.0,74,30.15,10.0,West,12.7,-,N/A,,Scattered Clouds,260,2013-01-02 06:53:00
1:53 AM,15.1,10.0,80,30.14,10.0,WSW,10.4,-,N/A,,Clear,250,2013-01-02 07:53:00
2:53 AM,14.0,9.0,80,30.13,10.0,SW,9.2,-,N/A,,Unknown,230,2013-01-02 08:53:00
3:53 AM,14.0,8.1,77,30.13,10.0,WSW,10.4,-,N/A,,Clear,250,2013-01-02 09:53:00
4:53 AM,14.0,9.0,80,30.13,10.0,West,11.5,-,N/A,,Partly Cloudy,270,2013-01-02 10:53:00
5:53 AM,15.1,10.0,80,30.14,10.0,West,10.4,-,N/A,,Overcast,270,2013-01-02 11:53:00
6:53 AM,19.0,15.1,85,30.14,10.0,West,9.2,-,N/A,,Overcast,280,2013-01-02 12:53:00
7:53 AM,23.0,19.0,85,30.14,9.0,WNW,8.1,-,0.00,,Overcast,290,2013-01-02 13:53:00
8:53 AM,24.8,21.2,86,30.07,10.0,WNW,8.1,-,N/A,,Overcast,290,2013-01-02 14:53:00
9:53 AM,28.0,25.0,88,30.17,10.0,WNW,10.4,-,N/A,,Overcast,290,2013-01-02 15:53:00
10:53 AM,30.0,26.1,85,30.18,10.0,West,10.4,-,N/A,,Overcast,280,2013-01-02 16:53:00
11:53 AM,33.1,27.0,78,30.09,10.0,WNW,10.4,-,N/A,,Overcast,290,2013-01-02 17:53:00
12:53 PM,35.1,27.0,72,30.14,10.0,WNW,15.0,-,N/A,,Unknown,300,2013-01-02 18:53:00
1:53 PM,34.0,27.0,75,30.14,10.0,WNW,12.7,-,N/A,,Overcast,300,2013-01-02 19:53:00
2:53 PM,34.0,25.0,70,30.16,10.0,NW,15.0,-,N/A,,Overcast,310,2013-01-02 20:53:00
3:53 PM,33.1,24.1,70,30.19,10.0,NNW,12.7,-,N/A,,Overcast,330,2013-01-02 21:53:00
4:43 PM,33.8,24.8,70,30.13,10.0,NNW,8.1,-,N/A,,Overcast,330,2013-01-02 22:43:00
4:53 PM,32.0,26.1,79,30.21,10.0,NW,4.6,-,N/A,,Overcast,320,2013-01-02 22:53:00
5:53 PM,32.0,26.1,79,30.22,10.0,WNW,4.6,-,N/A,,Overcast,290,2013-01-02 23:53:00
6:01 PM,30.2,26.6,86,30.15,10.0,West,4.6,-,N/A,,Overcast,280,2013-01-03 00:01:00
6:23 PM,30.2,26.6,86,30.15,10.0,West,3.5,-,N/A,,Overcast,280,2013-01-03 00:23:00
6:53 PM,30.0,26.1,85,30.24,10.0,West,4.6,-,N/A,,Overcast,260,2013-01-03 00:53:00
7:53 PM,30.9,25.0,79,30.25,10.0,WNW,6.9,-,N/A,,Overcast,290,2013-01-03 01:53:00
8:53 PM,30.0,25.0,82,30.26,10.0,West,5.8,-,N/A,,Overcast,280,2013-01-03 02:53:00
9:41 PM,30.2,24.8,80,30.21,10.0,West,9.2,-,N/A,,Overcast,280,2013-01-03 03:41:00
9:53 PM,30.0,25.0,82,30.27,10.0,West,9.2,-,N/A,,Overcast,280,2013-01-03 03:53:00
10:26 PM,28.4,21.2,74,30.23,10.0,WNW,13.8,-,N/A,,Mostly Cloudy,300,2013-01-03 04:26:00
10:37 PM,28.4,21.2,74,30.23,10.0,WNW,12.7,-,N/A,,Mostly Cloudy,300,2013-01-03 04:37:00
10:48 PM,26.6,21.2,80,30.24,10.0,WNW,11.5,-,N/A,,Mostly Cloudy,300,2013-01-03 04:48:00
10:53 PM,26.1,21.0,81,30.30,10.0,WNW,9.2,-,N/A,,Mostly Cloudy,290,2013-01-03 04:53:00
11:53 PM,24.1,19.0,81,30.32,10.0,NW,10.4,-,N/A,,Scattered Clouds,310,2013-01-03 05:53:00